Regional Weather Roundup
Issued by NWS

Home | Current Version | Previous Version | Graphics & Text | Print | Product List | Glossary On
Versions: 1 2 3 4 5 6 7 8 9 10 11 12 13 14 15 16 17 18 19 20 21 22 23 24 25 26 27 28 29 30 31 32 33 34 35 36 37 38 39 40 41 42 43 44 45 46 47 48 49 50
390
ASUS43 KLMK 081210
RWRKY
KENTUCKY REGIONAL WEATHER ROUNDUP
NATIONAL WEATHER SERVICE LOUISVILLE KY
700 AM EST THU DEC 08 2016

NOTE "FAIR" INDICATES FEW OR NO CLOUDS BELOW 12,000 FEET
WITH NO SIGNIFICANT WEATHER AND/OR OBSTRUCTIONS TO VISIBILITY.

KYZ001>023-026-027-061>063-070>075-081300-
WESTERN AND SOUTH CENTRAL KENTUCKY

CITY           SKY/WX    TMP DP  RH WIND       PRES   REMARKS
PADUCAH        PTCLDY    29  18  63 NW7       30.41R WCI  22
HENDERSON      CLOUDY    28  18  64 W9        30.37R WCI  20
OWENSBORO      MOCLDY    29  21  72 NW12      30.36R WCI  19
HOPKINSVILLE   CLOUDY    31  20  64 NW6       30.36R WCI  25
BOWLING GREEN  PTCLDY    32  22  66 W3        30.34R
GLASGOW        MOCLDY    30  23  74 CALM      30.31S
$$

KYZ024-025-028>034-038-045-046-053-081300-
NORTH CENTRAL KENTUCKY

CITY           SKY/WX    TMP DP  RH WIND       PRES   REMARKS
LOUISVILLE/SDF PTCLDY    29  16  58 W10       30.29R WCI  20
LOUISVILLE/LOU PTCLDY    30  16  56 W12       30.30R WCI  20
FORT KNOX      MOCLDY    28  19  70 W9        30.27R WCI  19
$$

KYZ035>037-039>044-047>052-055>060-089>105-081300-
NORTHEAST KENTUCKY

CITY           SKY/WX    TMP DP  RH WIND       PRES   REMARKS
LEXINGTON      CLOUDY    30  19  63 W9        30.24R WCI  22
COVINGTON      PTCLDY    26  16  65 W13       30.22R WCI  15
FRANKFORT      CLOUDY    30  18  60 W6        30.25R WCI  24
$$

KYZ054-064>069-076>088-106>120-081300-
SOUTHEAST KENTUCKY

CITY           SKY/WX    TMP DP  RH WIND       PRES   REMARKS
JACKSON        CLOUDY    31  21  66 VRB7      30.21R WCI  24
LONDON         PTCLDY    31  20  63 NW6       30.25R WCI  25
SOMERSET       CLOUDY    30  21  69 W5        30.29S WCI  25
MIDDLESBORO    CLOUDY    34  22  62 NW8       30.24S WCI  27
MONTICELLO     MOSUNNY   30  25  81 W8        30.31R WCI  22
$$





USA.gov is the U.S. government's official web portal to all federal, state and local government web resources and services.